Time,TemperatureF,DewpointF,PressureIn,WindDirection,WindDirectionDegrees,WindSpeedMPH,WindSpeedGustMPH,Humidity,HourlyPrecipIn,Conditions,Clouds,dailyrainin,SolarRadiationWatts/m^2,SoftwareType,DateUTC
2013-01-27 00:00:00,16.0,16.0,29.55,ESE,112,0.0,0.0,100,0.00,,---,0.00,0.00,VWS V14.01,2013-01-27 05:00:00,
2013-01-27 00:03:00,17.0,17.0,29.55,ESE,112,0.0,0.0,100,0.00,,---,0.00,0.00,VWS V14.01,2013-01-27 05:03:00,
2013-01-27 00:04:00,17.0,17.0,29.55,ESE,112,0.0,0.0,100,0.00,,---,0.00,0.00,VWS V14.01,2013-01-27 05:04:00,
2013-01-27 00:10:00,17.0,17.0,29.55,ESE,112,0.0,0.0,100,0.00,,---,0.00,0.00,VWS V14.01,2013-01-27 05:10:00,
2013-01-27 00:15:00,17.0,17.0,29.55,ESE,112,0.0,0.0,100,0.00,,---,0.00,0.00,VWS V14.01,2013-01-27 05:15:00,
2013-01-27 00:20:00,17.0,17.0,29.53,ESE,112,0.0,1.0,100,0.00,,---,0.00,0.00,VWS V14.01,2013-01-27 05:20:00,
2013-01-27 00:25:00,17.0,17.0,29.53,ESE,112,0.0,1.0,100,0.00,,---,0.00,0.00,VWS V14.01,2013-01-27 05:25:00,
2013-01-27 00:30:00,17.0,17.0,29.54,East,90,0.0,0.0,100,0.00,,---,0.00,0.00,VWS V14.01,2013-01-27 05:30:00,
2013-01-27 00:35:00,17.0,17.0,29.54,SSE,157,0.0,0.0,100,0.00,,---,0.00,0.00,VWS V14.01,2013-01-27 05:35:00,
2013-01-27 00:40:00,17.0,17.0,29.55,NE,45,0.0,0.0,100,0.00,,---,0.00,0.00,VWS V14.01,2013-01-27 05:40:00,
2013-01-27 00:45:00,17.0,17.0,29.55,NE,45,0.0,0.0,100,0.00,,---,0.00,0.00,VWS V14.01,2013-01-27 05:45:00,
2013-01-27 00:50:00,17.0,17.0,29.56,NE,45,0.0,0.0,100,0.00,,---,0.00,0.00,VWS V14.01,2013-01-27 05:50:00,
2013-01-27 00:55:00,17.0,17.0,29.56,ENE,67,0.0,0.0,100,0.00,,---,0.00,0.00,VWS V14.01,2013-01-27 05:55:00,
2013-01-27 01:00:00,16.0,16.0,29.55,East,90,0.0,0.0,100,0.00,,---,0.00,0.00,VWS V14.01,2013-01-27 06:00:00,
2013-01-27 01:05:00,16.0,16.0,29.55,ENE,67,0.0,0.0,100,0.00,,---,0.00,0.00,VWS V14.01,2013-01-27 06:05:00,
2013-01-27 01:10:00,16.0,16.0,29.56,ENE,67,0.0,0.0,100,0.00,,---,0.00,0.00,VWS V14.01,2013-01-27 06:10:00,
2013-01-27 01:15:00,16.0,16.0,29.56,ENE,67,0.0,0.0,100,0.00,,---,0.00,0.00,VWS V14.01,2013-01-27 06:15:00,
2013-01-27 01:20:00,16.0,16.0,29.56,ENE,67,0.0,0.0,100,0.00,,---,0.00,0.00,VWS V14.01,2013-01-27 06:20:00,
2013-01-27 01:25:00,16.0,16.0,29.56,ENE,67,0.0,0.0,100,0.00,,---,0.00,0.00,VWS V14.01,2013-01-27 06:25:00,
2013-01-27 01:30:00,16.0,16.0,29.55,ENE,67,0.0,0.0,100,0.00,,---,0.00,0.00,VWS V14.01,2013-01-27 06:30:00,
2013-01-27 01:35:00,16.0,16.0,29.55,ESE,112,0.0,0.0,100,0.00,,---,0.00,0.00,VWS V14.01,2013-01-27 06:35:00,
2013-01-27 01:40:00,16.0,16.0,29.55,ESE,112,0.0,0.0,100,0.00,,---,0.00,0.00,VWS V14.01,2013-01-27 06:40:00,
2013-01-27 01:45:00,15.0,15.0,29.55,ENE,67,0.0,0.0,100,0.00,,---,0.00,0.00,VWS V14.01,2013-01-27 06:45:00,
2013-01-27 01:50:00,16.0,16.0,29.55,ENE,67,0.0,0.0,100,0.00,,---,0.00,0.00,VWS V14.01,2013-01-27 06:50:00,
2013-01-27 01:55:00,15.0,15.0,29.55,ENE,67,0.0,0.0,100,0.00,,---,0.00,0.00,VWS V14.01,2013-01-27 06:55:00,
2013-01-27 02:00:00,15.0,15.0,29.56,ENE,67,0.0,0.0,100,0.00,,---,0.00,0.00,VWS V14.01,2013-01-27 07:00:00,
2013-01-27 02:05:00,15.0,15.0,29.56,ENE,67,0.0,0.0,100,0.00,,---,0.00,0.00,VWS V14.01,2013-01-27 07:05:00,
2013-01-27 02:13:00,15.0,15.0,29.56,ENE,67,0.0,0.0,100,0.00,,---,0.00,0.00,VWS V14.01,2013-01-27 07:13:00,
2013-01-27 02:18:00,15.0,15.0,29.56,ENE,67,0.0,0.0,100,0.00,,---,0.00,0.00,VWS V14.01,2013-01-27 07:18:00,
2013-01-27 02:23:00,15.0,15.0,29.56,ENE,67,0.0,0.0,100,0.00,,---,0.00,0.00,VWS V14.01,2013-01-27 07:23:00,
2013-01-27 02:28:00,14.0,14.0,29.56,ENE,67,0.0,0.0,100,0.00,,---,0.00,0.00,VWS V14.01,2013-01-27 07:28:00,
2013-01-27 02:33:00,14.0,14.0,29.55,ENE,67,0.0,0.0,100,0.00,,---,0.00,0.00,VWS V14.01,2013-01-27 07:33:00,
2013-01-27 02:38:00,14.0,14.0,29.55,ENE,67,0.0,0.0,100,0.00,,---,0.00,0.00,VWS V14.01,2013-01-27 07:38:00,
2013-01-27 02:43:00,14.0,14.0,29.55,ENE,67,0.0,0.0,100,0.00,,---,0.00,0.00,VWS V14.01,2013-01-27 07:43:00,
2013-01-27 02:49:00,14.0,14.0,29.55,ENE,67,0.0,0.0,100,0.00,,---,0.00,0.00,VWS V14.01,2013-01-27 07:49:00,
2013-01-27 02:54:00,15.0,15.0,29.55,ENE,67,0.0,0.0,100,0.00,,---,0.00,0.00,VWS V14.01,2013-01-27 07:54:00,
2013-01-27 02:59:00,15.0,15.0,29.56,ENE,67,0.0,0.0,100,0.00,,---,0.00,0.00,VWS V14.01,2013-01-27 07:59:00,
2013-01-27 03:04:00,15.0,15.0,29.56,SE,135,0.0,0.0,100,0.00,,---,0.00,0.00,VWS V14.01,2013-01-27 08:04:00,
2013-01-27 03:09:00,15.0,15.0,29.56,SE,135,0.0,0.0,100,0.00,,---,0.00,0.00,VWS V14.01,2013-01-27 08:09:00,
2013-01-27 03:14:00,16.0,16.0,29.56,SE,135,0.0,0.0,100,0.00,,---,0.00,0.00,VWS V14.01,2013-01-27 08:14:00,
2013-01-27 03:19:00,16.0,16.0,29.55,SE,135,0.0,1.0,100,0.00,,---,0.00,0.00,VWS V14.01,2013-01-27 08:19:00,
2013-01-27 03:24:00,17.0,17.0,29.55,SE,135,0.0,0.0,100,0.00,,---,0.00,0.00,VWS V14.01,2013-01-27 08:24:00,
2013-01-27 03:29:00,17.0,17.0,29.55,SE,135,0.0,1.0,100,0.00,,---,0.00,0.00,VWS V14.01,2013-01-27 08:29:00,
2013-01-27 03:34:00,17.0,17.0,29.55,ESE,112,0.0,1.0,100,0.00,,---,0.00,0.00,VWS V14.01,2013-01-27 08:34:00,
2013-01-27 03:39:00,17.0,17.0,29.54,SE,135,0.0,1.0,100,0.00,,---,0.00,0.00,VWS V14.01,2013-01-27 08:39:00,
2013-01-27 03:44:00,17.0,17.0,29.54,ESE,112,0.0,1.0,100,0.00,,---,0.00,0.00,VWS V14.01,2013-01-27 08:44:00,
2013-01-27 03:49:00,17.0,17.0,29.55,SSE,157,0.0,0.0,100,0.00,,---,0.00,0.00,VWS V14.01,2013-01-27 08:49:00,
2013-01-27 03:54:00,17.0,17.0,29.55,SSE,157,0.0,1.0,100,0.00,,---,0.00,0.00,VWS V14.01,2013-01-27 08:54:00,
2013-01-27 03:59:00,18.0,18.0,29.55,ESE,112,0.0,0.0,100,0.00,,---,0.00,0.00,VWS V14.01,2013-01-27 08:59:00,
2013-01-27 04:04:00,17.0,17.0,29.55,ESE,112,0.0,0.0,100,0.00,,---,0.00,0.00,VWS V14.01,2013-01-27 09:04:00,
2013-01-27 04:09:00,17.0,17.0,29.56,ESE,112,0.0,0.0,100,0.00,,---,0.00,0.00,VWS V14.01,2013-01-27 09:09:00,
2013-01-27 04:14:00,17.0,17.0,29.56,ESE,112,0.0,0.0,100,0.00,,---,0.00,0.00,VWS V14.01,2013-01-27 09:14:00,
2013-01-27 04:19:00,17.0,17.0,29.56,ESE,112,0.0,0.0,100,0.00,,---,0.00,0.00,VWS V14.01,2013-01-27 09:19:00,
2013-01-27 04:24:00,17.0,17.0,29.56,SE,135,0.0,0.0,100,0.00,,---,0.00,0.00,VWS V14.01,2013-01-27 09:24:00,
2013-01-27 04:29:00,17.0,17.0,29.56,SE,135,0.0,0.0,100,0.00,,---,0.00,0.00,VWS V14.01,2013-01-27 09:29:00,
2013-01-27 04:34:00,17.0,17.0,29.56,SE,135,0.0,0.0,100,0.00,,---,0.00,0.00,VWS V14.01,2013-01-27 09:34:00,
2013-01-27 04:39:00,17.0,17.0,29.55,ESE,112,0.0,0.0,100,0.00,,---,0.00,0.00,VWS V14.01,2013-01-27 09:39:00,
2013-01-27 04:44:00,17.0,17.0,29.55,ENE,67,0.0,1.0,100,0.00,,---,0.00,0.00,VWS V14.01,2013-01-27 09:44:00,
2013-01-27 04:49:00,17.0,17.0,29.55,ENE,67,0.0,0.0,100,0.00,,---,0.00,0.00,VWS V14.01,2013-01-27 09:49:00,
2013-01-27 04:54:00,16.0,16.0,29.55,NNE,22,0.0,0.0,100,0.00,,---,0.00,0.00,VWS V14.01,2013-01-27 09:54:00,
2013-01-27 04:59:00,16.0,16.0,29.55,East,90,0.0,0.0,100,0.00,,---,0.00,0.00,VWS V14.01,2013-01-27 09:59:00,
2013-01-27 05:04:00,16.0,16.0,29.55,East,90,0.0,0.0,100,0.00,,---,0.00,0.00,VWS V14.01,2013-01-27 10:04:00,
2013-01-27 05:09:00,16.0,16.0,29.55,East,90,0.0,0.0,100,0.00,,---,0.00,0.00,VWS V14.01,2013-01-27 10:09:00,
2013-01-27 05:14:00,15.0,15.0,29.55,East,90,0.0,0.0,100,0.00,,---,0.00,0.00,VWS V14.01,2013-01-27 10:14:00,
2013-01-27 05:19:00,15.0,15.0,29.55,East,90,0.0,0.0,100,0.00,,---,0.00,0.00,VWS V14.01,2013-01-27 10:19:00,
2013-01-27 05:24:00,15.0,15.0,29.55,East,90,0.0,0.0,100,0.00,,---,0.00,0.00,VWS V14.01,2013-01-27 10:24:00,
2013-01-27 05:29:00,15.0,15.0,29.54,East,90,0.0,0.0,100,0.00,,---,0.00,0.00,VWS V14.01,2013-01-27 10:29:00,
2013-01-27 05:34:00,15.0,15.0,29.54,ESE,112,0.0,0.0,100,0.00,,---,0.00,0.00,VWS V14.01,2013-01-27 10:34:00,
2013-01-27 05:39:00,15.0,15.0,29.54,ESE,112,0.0,0.0,100,0.00,,---,0.00,0.00,VWS V14.01,2013-01-27 10:39:00,
2013-01-27 05:44:00,14.0,14.0,29.54,ESE,112,0.0,0.0,100,0.00,,---,0.00,0.00,VWS V14.01,2013-01-27 10:44:00,
2013-01-27 05:49:00,14.0,14.0,29.54,ESE,112,0.0,0.0,100,0.00,,---,0.00,0.00,VWS V14.01,2013-01-27 10:49:00,
2013-01-27 05:54:00,14.0,14.0,29.54,ESE,112,0.0,0.0,100,0.00,,---,0.00,0.00,VWS V14.01,2013-01-27 10:54:00,
2013-01-27 05:59:00,14.0,14.0,29.53,ESE,112,0.0,0.0,100,0.00,,---,0.00,0.00,VWS V14.01,2013-01-27 10:59:00,
2013-01-27 06:04:00,14.0,14.0,29.53,ESE,112,0.0,0.0,100,0.00,,---,0.00,0.00,VWS V14.01,2013-01-27 11:04:00,
2013-01-27 06:09:00,14.0,14.0,29.53,ESE,112,0.0,0.0,100,0.00,,---,0.00,0.00,VWS V14.01,2013-01-27 11:09:00,
2013-01-27 06:14:00,14.0,14.0,29.53,ESE,112,0.0,0.0,100,0.00,,---,0.00,0.00,VWS V14.01,2013-01-27 11:14:00,
2013-01-27 06:19:00,15.0,15.0,29.53,ESE,112,0.0,0.0,100,0.00,,---,0.00,0.00,VWS V14.01,2013-01-27 11:19:00,
2013-01-27 06:24:00,15.0,15.0,29.53,SSE,157,0.0,0.0,100,0.00,,---,0.00,0.00,VWS V14.01,2013-01-27 11:24:00,
2013-01-27 06:29:00,15.0,15.0,29.53,SSE,157,0.0,0.0,100,0.00,,---,0.00,0.00,VWS V14.01,2013-01-27 11:29:00,
2013-01-27 06:34:00,16.0,16.0,29.53,SSE,157,0.0,0.0,100,0.00,,---,0.00,0.00,VWS V14.01,2013-01-27 11:34:00,
2013-01-27 06:39:00,16.0,16.0,29.53,SE,135,0.0,0.0,100,0.00,,---,0.00,0.00,VWS V14.01,2013-01-27 11:39:00,
2013-01-27 06:44:00,16.0,16.0,29.53,SE,135,0.0,0.0,100,0.00,,---,0.00,0.00,VWS V14.01,2013-01-27 11:44:00,
2013-01-27 06:49:00,17.0,17.0,29.53,ESE,112,0.0,1.0,100,0.00,,---,0.00,0.00,VWS V14.01,2013-01-27 11:49:00,
2013-01-27 06:54:00,17.0,17.0,29.53,ESE,112,0.0,0.0,100,0.00,,---,0.00,0.00,VWS V14.01,2013-01-27 11:54:00,
2013-01-27 06:59:00,17.0,17.0,29.54,ESE,112,0.0,0.0,100,0.00,,---,0.00,0.00,VWS V14.01,2013-01-27 11:59:00,
2013-01-27 07:04:00,17.0,17.0,29.54,ESE,112,0.0,0.0,100,0.00,,---,0.00,0.00,VWS V14.01,2013-01-27 12:04:00,
2013-01-27 07:09:00,17.0,17.0,29.54,ENE,67,0.0,0.0,100,0.00,,---,0.00,0.00,VWS V14.01,2013-01-27 12:09:00,
2013-01-27 07:14:00,17.0,17.0,29.54,ENE,67,0.0,0.0,100,0.00,,---,0.00,0.00,VWS V14.01,2013-01-27 12:14:00,
2013-01-27 07:19:00,17.0,17.0,29.53,ESE,112,0.0,0.0,100,0.00,,---,0.00,0.00,VWS V14.01,2013-01-27 12:19:00,
2013-01-27 07:24:00,17.0,17.0,29.53,ESE,112,0.0,0.0,100,0.00,,---,0.00,0.00,VWS V14.01,2013-01-27 12:24:00,
2013-01-27 07:30:00,17.0,17.0,29.54,SE,135,0.0,0.0,100,0.00,,---,0.00,0.00,VWS V14.01,2013-01-27 12:30:00,
2013-01-27 07:35:00,17.0,17.0,29.54,SSE,157,0.0,0.0,100,0.00,,---,0.00,0.00,VWS V14.01,2013-01-27 12:35:00,
2013-01-27 07:40:00,17.0,17.0,29.55,SSE,157,0.0,0.0,100,0.00,,---,0.00,0.00,VWS V14.01,2013-01-27 12:40:00,
2013-01-27 07:45:00,17.0,17.0,29.55,South,180,0.0,1.0,100,0.00,,---,0.00,0.00,VWS V14.01,2013-01-27 12:45:00,
2013-01-27 07:50:00,17.0,17.0,29.56,SSE,157,0.0,1.0,100,0.00,,---,0.00,0.00,VWS V14.01,2013-01-27 12:50:00,
2013-01-27 07:55:00,17.0,17.0,29.56,SSE,157,0.0,0.0,100,0.00,,---,0.00,0.00,VWS V14.01,2013-01-27 12:55:00,
2013-01-27 08:00:00,18.0,18.0,29.56,SE,135,0.0,1.0,100,0.00,,---,0.00,0.00,VWS V14.01,2013-01-27 13:00:00,
2013-01-27 08:05:00,18.0,18.0,29.56,ESE,112,0.0,1.0,100,0.00,,---,0.00,0.00,VWS V14.01,2013-01-27 13:05:00,
2013-01-27 08:10:00,18.0,18.0,29.56,ESE,112,0.0,0.0,100,0.00,,---,0.00,0.00,VWS V14.01,2013-01-27 13:10:00,
2013-01-27 08:15:00,18.0,18.0,29.56,ESE,112,0.0,0.0,100,0.00,,---,0.00,0.00,VWS V14.01,2013-01-27 13:15:00,
2013-01-27 08:16:00,18.0,18.0,29.56,ESE,112,0.0,0.0,100,0.00,,---,0.00,0.00,VWS V14.01,2013-01-27 13:16:00,
2013-01-27 08:21:00,18.0,18.0,29.56,ESE,112,0.0,0.0,100,0.00,,---,0.00,0.00,VWS V14.01,2013-01-27 13:21:00,
2013-01-27 08:29:00,19.0,19.0,29.55,East,90,0.0,0.0,100,0.00,,---,0.00,0.00,VWS V14.01,2013-01-27 13:29:00,
2013-01-27 08:30:00,19.0,19.0,29.55,ESE,112,1.0,1.0,100,0.00,,---,0.00,0.00,VWS V14.01,2013-01-27 13:30:00,
2013-01-27 08:34:00,19.0,19.0,29.55,ESE,112,1.0,1.0,100,0.00,,---,0.00,0.00,VWS V14.01,2013-01-27 13:34:00,
2013-01-27 08:39:00,19.0,19.0,29.55,ESE,112,1.0,1.0,100,0.00,,---,0.00,0.00,VWS V14.01,2013-01-27 13:39:00,
2013-01-27 09:12:00,21.0,21.0,29.54,SE,135,3.0,3.0,100,0.00,,---,0.00,0.00,VWS V14.01,2013-01-27 14:12:00,
2013-01-27 09:17:00,21.0,21.0,29.54,ESE,112,6.0,6.0,100,0.00,,---,0.00,0.00,VWS V14.01,2013-01-27 14:17:00,
2013-01-27 09:22:00,21.0,21.0,29.54,ESE,112,0.0,0.0,100,0.00,,---,0.00,0.00,VWS V14.01,2013-01-27 14:22:00,
2013-01-27 09:27:00,21.0,21.0,29.54,ESE,112,0.0,0.0,100,0.00,,---,0.00,0.00,VWS V14.01,2013-01-27 14:27:00,
2013-01-27 09:49:00,22.0,22.0,29.54,SSE,157,3.0,3.0,100,0.00,,---,0.00,0.00,VWS V14.01,2013-01-27 14:49:00,
2013-01-27 09:54:00,22.0,22.0,29.54,ESE,112,3.0,3.0,100,0.00,,---,0.00,0.00,VWS V14.01,2013-01-27 14:54:00,
2013-01-27 09:57:00,23.0,23.0,29.54,ESE,112,4.0,4.0,100,0.00,,---,0.00,0.00,VWS V14.01,2013-01-27 14:57:00,
2013-01-27 09:59:00,23.0,23.0,29.54,ESE,112,4.0,4.0,100,0.00,,---,0.00,0.00,VWS V14.01,2013-01-27 14:59:00,
2013-01-27 10:04:00,23.0,23.0,29.54,ESE,112,4.0,4.0,100,0.00,,---,0.00,0.00,VWS V14.01,2013-01-27 15:04:00,
2013-01-27 10:29:00,24.0,24.0,29.54,SE,135,0.0,0.0,100,0.00,,---,0.00,0.00,VWS V14.01,2013-01-27 15:29:00,
2013-01-27 10:34:00,24.0,24.0,29.54,ESE,112,0.0,0.0,100,0.00,,---,0.00,0.00,VWS V14.01,2013-01-27 15:34:00,
2013-01-27 10:39:00,24.0,23.5,29.54,South,180,0.0,2.0,98,0.00,,---,0.00,0.00,VWS V14.01,2013-01-27 15:39:00,
2013-01-27 10:44:00,25.0,24.8,29.54,SE,135,1.0,2.0,99,0.00,,---,0.00,0.00,VWS V14.01,2013-01-27 15:44:00,
2013-01-27 10:49:00,25.0,24.5,29.54,ESE,112,4.0,4.0,98,0.00,,---,0.00,0.00,VWS V14.01,2013-01-27 15:49:00,
2013-01-27 10:55:00,25.0,24.5,29.54,ESE,112,4.0,4.0,98,0.00,,---,0.00,0.00,VWS V14.01,2013-01-27 15:55:00,
2013-01-27 11:00:00,26.0,25.0,29.51,ESE,112,2.0,5.0,96,0.00,,---,0.00,0.00,VWS V14.01,2013-01-27 16:00:00,
2013-01-27 11:05:00,26.0,25.3,29.51,ESE,112,5.0,5.0,97,0.00,,---,0.00,0.00,VWS V14.01,2013-01-27 16:05:00,
2013-01-27 11:10:00,26.0,25.0,29.51,ESE,112,3.0,3.0,96,0.00,,---,0.00,0.00,VWS V14.01,2013-01-27 16:10:00,
2013-01-27 11:15:00,26.0,25.0,29.52,SSE,157,6.0,6.0,96,0.00,,---,0.00,0.00,VWS V14.01,2013-01-27 16:15:00,
2013-01-27 11:20:00,27.0,25.5,29.51,SE,135,3.0,4.0,94,0.00,,---,0.00,0.00,VWS V14.01,2013-01-27 16:20:00,
2013-01-27 11:25:00,27.0,25.8,29.51,SSE,157,2.0,2.0,95,0.00,,---,0.00,0.00,VWS V14.01,2013-01-27 16:25:00,
2013-01-27 11:30:00,27.0,25.8,29.51,ESE,112,4.0,5.0,95,0.00,,---,0.00,0.00,VWS V14.01,2013-01-27 16:30:00,
2013-01-27 11:35:00,27.0,25.5,29.51,SE,135,3.0,3.0,94,0.00,,---,0.00,0.00,VWS V14.01,2013-01-27 16:35:00,
2013-01-27 11:40:00,28.0,26.2,29.51,ESE,112,5.0,5.0,93,0.00,,---,0.00,0.00,VWS V14.01,2013-01-27 16:40:00,
2013-01-27 11:45:00,28.0,26.5,29.51,East,90,2.0,6.0,94,0.00,,---,0.00,0.00,VWS V14.01,2013-01-27 16:45:00,
2013-01-27 11:50:00,28.0,26.2,29.49,ESE,112,8.0,8.0,93,0.00,,---,0.00,0.00,VWS V14.01,2013-01-27 16:50:00,
2013-01-27 11:55:00,29.0,26.7,29.49,SSE,157,3.0,3.0,91,0.00,,---,0.00,0.00,VWS V14.01,2013-01-27 16:55:00,
2013-01-27 12:00:00,29.0,26.7,29.49,ESE,112,5.0,5.0,91,0.00,,---,0.00,0.00,VWS V14.01,2013-01-27 17:00:00,
2013-01-27 12:05:00,29.0,26.4,29.48,SSE,157,5.0,7.0,90,0.00,,---,0.00,0.00,VWS V14.01,2013-01-27 17:05:00,
2013-01-27 12:10:00,29.0,26.7,29.48,ESE,112,4.0,4.0,91,0.00,,---,0.00,0.00,VWS V14.01,2013-01-27 17:10:00,
2013-01-27 12:16:00,29.0,26.4,29.48,SSE,157,4.0,7.0,90,0.00,,---,0.00,0.00,VWS V14.01,2013-01-27 17:16:00,
2013-01-27 12:21:00,29.0,26.4,29.46,ESE,112,4.0,7.0,90,0.00,,---,0.00,0.00,VWS V14.01,2013-01-27 17:21:00,
2013-01-27 12:26:00,30.0,27.2,29.46,SSE,157,4.0,6.0,89,0.00,,---,0.00,0.00,VWS V14.01,2013-01-27 17:26:00,
2013-01-27 12:31:00,30.0,26.9,29.46,ESE,112,4.0,4.0,88,0.00,,---,0.00,0.00,VWS V14.01,2013-01-27 17:31:00,
2013-01-27 12:36:00,30.0,26.9,29.46,SSE,157,1.0,3.0,88,0.00,,---,0.00,0.00,VWS V14.01,2013-01-27 17:36:00,
2013-01-27 12:41:00,30.0,26.9,29.46,SE,135,3.0,3.0,88,0.00,,---,0.00,0.00,VWS V14.01,2013-01-27 17:41:00,
2013-01-27 12:46:00,30.0,26.6,29.45,SE,135,5.0,5.0,87,0.00,,---,0.00,0.00,VWS V14.01,2013-01-27 17:46:00,
2013-01-27 12:51:00,31.0,27.3,29.44,SE,135,3.0,4.0,86,0.00,,---,0.00,0.00,VWS V14.01,2013-01-27 17:51:00,
2013-01-27 12:56:00,31.0,27.6,29.44,ESE,112,4.0,4.0,87,0.00,,---,0.00,0.00,VWS V14.01,2013-01-27 17:56:00,
2013-01-27 13:01:00,31.0,27.6,29.45,ESE,112,6.0,6.0,87,0.00,,---,0.00,0.00,VWS V14.01,2013-01-27 18:01:00,
2013-01-27 13:06:00,31.0,27.3,29.45,ESE,112,5.0,7.0,86,0.00,,---,0.00,0.00,VWS V14.01,2013-01-27 18:06:00,
2013-01-27 13:11:00,31.0,27.6,29.45,SE,135,3.0,6.0,87,0.00,,---,0.00,0.00,VWS V14.01,2013-01-27 18:11:00,
2013-01-27 13:17:00,31.0,27.6,29.45,ESE,112,4.0,4.0,87,0.00,,---,0.00,0.00,VWS V14.01,2013-01-27 18:17:00,
2013-01-27 13:22:00,31.0,27.3,29.44,SW,225,3.0,8.0,86,0.00,,---,0.00,0.00,VWS V14.01,2013-01-27 18:22:00,
2013-01-27 13:27:00,31.0,27.3,29.44,SE,135,5.0,7.0,86,0.00,,---,0.00,0.00,VWS V14.01,2013-01-27 18:27:00,
2013-01-27 13:32:00,31.0,27.3,29.43,ESE,112,4.0,8.0,86,0.00,,---,0.00,0.00,VWS V14.01,2013-01-27 18:32:00,
2013-01-27 13:37:00,31.0,27.0,29.43,ESE,112,6.0,10.0,85,0.00,,---,0.00,0.00,VWS V14.01,2013-01-27 18:37:00,
2013-01-27 13:42:00,31.0,27.0,29.41,SSE,157,4.0,8.0,85,0.00,,---,0.00,0.00,VWS V14.01,2013-01-27 18:42:00,
2013-01-27 13:47:00,31.0,27.6,29.41,ESE,112,7.0,8.0,87,0.00,,---,0.00,0.00,VWS V14.01,2013-01-27 18:47:00,
2013-01-27 13:52:00,31.0,27.0,29.41,ESE,112,6.0,7.0,85,0.00,,---,0.00,0.00,VWS V14.01,2013-01-27 18:52:00,
2013-01-27 13:57:00,31.0,27.3,29.41,ESE,112,6.0,10.0,86,0.00,,---,0.00,0.00,VWS V14.01,2013-01-27 18:57:00,
2013-01-27 14:02:00,31.0,27.3,29.41,SE,135,6.0,6.0,86,0.00,,---,0.00,0.00,VWS V14.01,2013-01-27 19:02:00,
2013-01-27 14:07:00,31.0,27.6,29.41,SSE,157,2.0,3.0,87,0.00,,---,0.00,0.00,VWS V14.01,2013-01-27 19:07:00,
2013-01-27 14:12:00,31.0,27.6,29.40,ESE,112,6.0,7.0,87,0.00,,---,0.00,0.00,VWS V14.01,2013-01-27 19:12:00,
2013-01-27 14:17:00,31.0,27.6,29.40,SE,135,3.0,4.0,87,0.00,,---,0.00,0.00,VWS V14.01,2013-01-27 19:17:00,
2013-01-27 14:22:00,31.0,27.6,29.40,ESE,112,5.0,8.0,87,0.00,,---,0.00,0.00,VWS V14.01,2013-01-27 19:22:00,
2013-01-27 14:27:00,31.0,27.9,29.40,SSE,157,2.0,2.0,88,0.00,,---,0.00,0.00,VWS V14.01,2013-01-27 19:27:00,
2013-01-27 14:32:00,31.0,27.6,29.40,SE,135,4.0,6.0,87,0.00,,---,0.00,0.00,VWS V14.01,2013-01-27 19:32:00,
2013-01-27 14:37:00,31.0,27.6,29.40,SE,135,4.0,4.0,87,0.00,,---,0.00,0.00,VWS V14.01,2013-01-27 19:37:00,
2013-01-27 14:42:00,32.0,28.9,29.39,ESE,112,5.0,5.0,88,0.00,,---,0.00,0.00,VWS V14.01,2013-01-27 19:42:00,
2013-01-27 14:47:00,32.0,28.0,29.39,South,180,5.0,7.0,85,0.00,,---,0.00,0.00,VWS V14.01,2013-01-27 19:47:00,
2013-01-27 14:52:00,32.0,28.0,29.37,ESE,112,9.0,10.0,85,0.00,,---,0.00,0.00,VWS V14.01,2013-01-27 19:52:00,
2013-01-27 14:58:00,32.0,28.0,29.37,ESE,112,6.0,9.0,85,0.00,,---,0.00,0.00,VWS V14.01,2013-01-27 19:58:00,
2013-01-27 15:03:00,32.0,28.0,29.37,SSE,157,3.0,3.0,85,0.00,,---,0.00,0.00,VWS V14.01,2013-01-27 20:03:00,
2013-01-27 15:08:00,33.0,28.7,29.37,SSE,157,7.0,8.0,84,0.00,,---,0.00,0.00,VWS V14.01,2013-01-27 20:08:00,
2013-01-27 15:13:00,33.0,28.7,29.37,SSE,157,7.0,7.0,84,0.00,,---,0.00,0.00,VWS V14.01,2013-01-27 20:13:00,
2013-01-27 15:18:00,33.0,28.7,29.36,SSE,157,2.0,2.0,84,0.00,,---,0.00,0.00,VWS V14.01,2013-01-27 20:18:00,
2013-01-27 15:19:00,33.0,28.7,29.36,SSE,157,4.0,4.0,84,0.00,,---,0.00,0.00,VWS V14.01,2013-01-27 20:19:00,
2013-01-27 15:23:00,33.0,28.7,29.36,SSE,157,4.0,4.0,84,0.00,,---,0.00,0.00,VWS V14.01,2013-01-27 20:23:00,
2013-01-27 15:28:00,33.0,28.7,29.36,SSE,157,4.0,4.0,84,0.00,,---,0.00,0.00,VWS V14.01,2013-01-27 20:28:00,
2013-01-27 15:54:00,33.0,28.7,29.35,ESE,112,2.0,4.0,84,0.00,,---,0.00,0.00,VWS V14.01,2013-01-27 20:54:00,
2013-01-27 15:59:00,33.0,28.7,29.36,SE,135,6.0,7.0,84,0.00,,---,0.00,0.00,VWS V14.01,2013-01-27 20:59:00,
2013-01-27 16:04:00,33.0,29.3,29.36,ESE,112,4.0,5.0,86,0.00,,---,0.00,0.00,VWS V14.01,2013-01-27 21:04:00,
2013-01-27 16:09:00,33.0,28.7,29.35,ESE,112,0.0,5.0,84,0.00,,---,0.00,0.00,VWS V14.01,2013-01-27 21:09:00,
2013-01-27 16:14:00,33.0,28.1,29.35,ESE,112,4.0,8.0,82,0.00,,---,0.00,0.00,VWS V14.01,2013-01-27 21:14:00,
2013-01-27 16:19:00,33.0,28.1,29.35,SSE,157,6.0,6.0,82,0.00,,---,0.00,0.00,VWS V14.01,2013-01-27 21:19:00,
2013-01-27 16:24:00,33.0,28.1,29.35,SSE,157,1.0,6.0,82,0.00,,---,0.00,0.00,VWS V14.01,2013-01-27 21:24:00,
2013-01-27 16:30:00,33.0,27.8,29.35,SE,135,6.0,6.0,81,0.00,,---,0.00,0.00,VWS V14.01,2013-01-27 21:30:00,
2013-01-27 16:35:00,33.0,27.8,29.35,SSE,157,4.0,5.0,81,0.00,,---,0.00,0.00,VWS V14.01,2013-01-27 21:35:00,
2013-01-27 16:40:00,33.0,27.8,29.35,SSE,157,3.0,5.0,81,0.00,,---,0.00,0.00,VWS V14.01,2013-01-27 21:40:00,
2013-01-27 16:45:00,33.0,27.8,29.35,South,180,6.0,6.0,81,0.00,,---,0.00,0.00,VWS V14.01,2013-01-27 21:45:00,
2013-01-27 16:50:00,33.0,28.1,29.35,ESE,112,2.0,6.0,82,0.00,,---,0.00,0.00,VWS V14.01,2013-01-27 21:50:00,
2013-01-27 16:55:00,34.0,28.8,29.35,South,180,6.0,7.0,81,0.00,,---,0.00,0.00,VWS V14.01,2013-01-27 21:55:00,
2013-01-27 17:00:00,34.0,28.5,29.35,ESE,112,5.0,8.0,80,0.00,,---,0.00,0.00,VWS V14.01,2013-01-27 22:00:00,
2013-01-27 17:05:00,34.0,28.5,29.35,ESE,112,5.0,5.0,80,0.00,,---,0.00,0.00,VWS V14.01,2013-01-27 22:05:00,
2013-01-27 17:10:00,34.0,28.8,29.35,SE,135,9.0,9.0,81,0.00,,---,0.00,0.00,VWS V14.01,2013-01-27 22:10:00,
2013-01-27 17:15:00,34.0,28.8,29.35,SE,135,9.0,9.0,81,0.00,,---,0.00,0.00,VWS V14.01,2013-01-27 22:15:00,
2013-01-27 17:20:00,34.0,28.8,29.35,SE,135,9.0,9.0,81,0.00,,---,0.00,0.00,VWS V14.01,2013-01-27 22:20:00,
2013-01-27 17:25:00,34.0,29.4,29.35,SSE,157,3.0,4.0,83,0.00,,---,0.00,0.00,VWS V14.01,2013-01-27 22:25:00,
2013-01-27 17:30:00,33.0,29.3,29.34,SE,135,4.0,4.0,86,0.00,,---,0.00,0.00,VWS V14.01,2013-01-27 22:30:00,
2013-01-27 17:35:00,33.0,29.6,29.34,East,90,4.0,5.0,87,0.00,,---,0.00,0.00,VWS V14.01,2013-01-27 22:35:00,
2013-01-27 17:40:00,33.0,29.8,29.34,SSE,157,4.0,5.0,88,0.00,,---,0.00,0.00,VWS V14.01,2013-01-27 22:40:00,
2013-01-27 17:45:00,33.0,29.6,29.34,SE,135,9.0,9.0,87,0.00,,---,0.00,0.00,VWS V14.01,2013-01-27 22:45:00,
2013-01-27 17:50:00,33.0,29.6,29.34,East,90,7.0,7.0,87,0.00,,---,0.00,0.00,VWS V14.01,2013-01-27 22:50:00,
2013-01-27 17:55:00,34.0,30.3,29.35,SSE,157,2.0,12.0,86,0.00,,---,0.00,0.00,VWS V14.01,2013-01-27 22:55:00,
2013-01-27 18:00:00,33.0,29.6,29.35,SSE,157,3.0,7.0,87,0.00,,---,0.00,0.00,VWS V14.01,2013-01-27 23:00:00,
2013-01-27 18:05:00,33.0,30.1,29.35,SE,135,5.0,5.0,89,0.00,,---,0.00,0.00,VWS V14.01,2013-01-27 23:05:00,
2013-01-27 18:11:00,33.0,30.1,29.35,South,180,7.0,8.0,89,0.00,,---,0.00,0.00,VWS V14.01,2013-01-27 23:11:00,
2013-01-27 18:16:00,33.0,30.4,29.35,SSE,157,6.0,6.0,90,0.00,,---,0.00,0.00,VWS V14.01,2013-01-27 23:16:00,
2013-01-27 18:21:00,33.0,30.9,29.35,SSE,157,3.0,4.0,92,0.00,,---,0.00,0.00,VWS V14.01,2013-01-27 23:21:00,
2013-01-27 18:26:00,33.0,30.7,29.35,SE,135,0.0,4.0,91,0.00,,---,0.00,0.00,VWS V14.01,2013-01-27 23:26:00,
2013-01-27 18:31:00,33.0,30.7,29.35,SSE,157,2.0,2.0,91,0.00,,---,0.00,0.00,VWS V14.01,2013-01-27 23:31:00,
2013-01-27 18:36:00,33.0,30.7,29.35,SSE,157,2.0,2.0,91,0.00,,---,0.00,0.00,VWS V14.01,2013-01-27 23:36:00,
2013-01-27 18:41:00,33.0,31.5,29.37,SE,135,7.0,8.0,94,0.00,,---,0.00,0.00,VWS V14.01,2013-01-27 23:41:00,
2013-01-27 18:46:00,33.0,31.5,29.37,SE,135,3.0,5.0,94,0.01,,---,0.01,0.00,VWS V14.01,2013-01-27 23:46:00,
2013-01-27 18:51:00,33.0,32.2,29.36,SSE,157,2.0,4.0,97,0.01,,---,0.01,0.00,VWS V14.01,2013-01-27 23:51:00,
2013-01-27 18:56:00,33.0,32.8,29.36,South,180,1.0,3.0,99,0.01,,---,0.01,0.00,VWS V14.01,2013-01-27 23:56:00,
2013-01-27 19:01:00,33.0,33.0,29.37,SSE,157,1.0,3.0,100,0.01,,---,0.01,0.00,VWS V14.01,2013-01-28 00:01:00,
2013-01-27 19:06:00,32.0,32.0,29.37,ESE,112,0.0,0.0,100,0.01,,---,0.01,0.00,VWS V14.01,2013-01-28 00:06:00,
2013-01-27 19:11:00,32.0,32.0,29.39,SE,135,0.0,0.0,100,0.03,,---,0.03,0.00,VWS V14.01,2013-01-28 00:11:00,
2013-01-27 19:16:00,32.0,32.0,29.39,SE,135,1.0,1.0,100,0.03,,---,0.03,0.00,VWS V14.01,2013-01-28 00:16:00,
2013-01-27 19:21:00,32.0,32.0,29.39,SE,135,0.0,0.0,100,0.03,,---,0.03,0.00,VWS V14.01,2013-01-28 00:21:00,
2013-01-27 19:26:00,32.0,32.0,29.39,SE,135,3.0,3.0,100,0.05,,---,0.05,0.00,VWS V14.01,2013-01-28 00:26:00,
2013-01-27 19:31:00,31.0,31.0,29.38,SE,135,1.0,3.0,100,0.05,,---,0.05,0.00,VWS V14.01,2013-01-28 00:31:00,
2013-01-27 19:36:00,31.0,31.0,29.38,ESE,112,2.0,3.0,100,0.07,,---,0.07,0.00,VWS V14.01,2013-01-28 00:36:00,
2013-01-27 19:41:00,31.0,31.0,29.38,ESE,112,2.0,2.0,100,0.09,,---,0.09,0.00,VWS V14.01,2013-01-28 00:41:00,
2013-01-27 19:46:00,31.0,31.0,29.38,SE,135,1.0,3.0,100,0.10,,---,0.11,0.00,VWS V14.01,2013-01-28 00:46:00,
2013-01-27 19:51:00,31.0,31.0,29.37,ESE,112,3.0,5.0,100,0.12,,---,0.13,0.00,VWS V14.01,2013-01-28 00:51:00,
2013-01-27 19:56:00,31.0,31.0,29.37,ESE,112,3.0,5.0,100,0.12,,---,0.13,0.00,VWS V14.01,2013-01-28 00:56:00,
2013-01-27 20:01:00,31.0,31.0,29.36,East,90,5.0,7.0,100,0.14,,---,0.15,0.00,VWS V14.01,2013-01-28 01:01:00,
2013-01-27 20:07:00,31.0,31.0,29.36,ESE,112,2.0,7.0,100,0.15,,---,0.16,0.00,VWS V14.01,2013-01-28 01:07:00,
2013-01-27 20:12:00,31.0,31.0,29.35,ESE,112,3.0,5.0,100,0.14,,---,0.17,0.00,VWS V14.01,2013-01-28 01:12:00,
2013-01-27 20:17:00,31.0,31.0,29.35,SE,135,5.0,6.0,100,0.15,,---,0.18,0.00,VWS V14.01,2013-01-28 01:17:00,
2013-01-27 20:22:00,31.0,31.0,29.34,ESE,112,5.0,8.0,100,0.16,,---,0.19,0.00,VWS V14.01,2013-01-28 01:22:00,
2013-01-27 20:27:00,31.0,31.0,29.34,ESE,112,1.0,5.0,100,0.14,,---,0.19,0.00,VWS V14.01,2013-01-28 01:27:00,
2013-01-27 20:32:00,32.0,32.0,29.33,ESE,112,3.0,6.0,100,0.14,,---,0.20,0.00,VWS V14.01,2013-01-28 01:32:00,
2013-01-27 20:37:00,32.0,32.0,29.33,SE,135,3.0,6.0,100,0.13,,---,0.20,0.00,VWS V14.01,2013-01-28 01:37:00,
2013-01-27 20:42:00,32.0,32.0,29.33,ESE,112,3.0,6.0,100,0.11,,---,0.20,0.00,VWS V14.01,2013-01-28 01:42:00,
2013-01-27 20:47:00,32.0,32.0,29.33,SE,135,5.0,6.0,100,0.09,,---,0.21,0.00,VWS V14.01,2013-01-28 01:47:00,
2013-01-27 20:52:00,32.0,32.0,29.33,ESE,112,6.0,7.0,100,0.10,,---,0.21,0.00,VWS V14.01,2013-01-28 01:52:00,
2013-01-27 20:57:00,32.0,32.0,29.33,SSE,157,3.0,8.0,100,0.08,,---,0.21,0.00,VWS V14.01,2013-01-28 01:57:00,
2013-01-27 21:02:00,32.0,32.0,29.31,SSE,157,7.0,8.0,100,0.06,,---,0.21,0.00,VWS V14.01,2013-01-28 02:02:00,
2013-01-27 21:07:00,32.0,32.0,29.31,SE,135,3.0,3.0,100,0.05,,---,0.21,0.00,VWS V14.01,2013-01-28 02:07:00,
2013-01-27 21:12:00,32.0,32.0,29.31,South,180,2.0,4.0,100,0.05,,---,0.22,0.00,VWS V14.01,2013-01-28 02:12:00,
2013-01-27 21:17:00,32.0,32.0,29.31,ESE,112,5.0,7.0,100,0.04,,---,0.22,0.00,VWS V14.01,2013-01-28 02:17:00,
2013-01-27 21:22:00,32.0,32.0,29.31,SE,135,8.0,8.0,100,0.03,,---,0.22,0.00,VWS V14.01,2013-01-28 02:22:00,
2013-01-27 21:27:00,32.0,32.0,29.31,SSE,157,3.0,4.0,100,0.03,,---,0.22,0.00,VWS V14.01,2013-01-28 02:27:00,
2013-01-27 21:32:00,33.0,33.0,29.31,SE,135,7.0,7.0,100,0.03,,---,0.22,0.00,VWS V14.01,2013-01-28 02:32:00,
2013-01-27 21:37:00,33.0,33.0,29.31,ESE,112,3.0,4.0,100,0.02,,---,0.22,0.00,VWS V14.01,2013-01-28 02:37:00,
2013-01-27 21:42:00,33.0,33.0,29.29,ESE,112,5.0,10.0,100,0.03,,---,0.23,0.00,VWS V14.01,2013-01-28 02:42:00,
2013-01-27 21:47:00,33.0,33.0,29.29,SSE,157,4.0,5.0,100,0.03,,---,0.23,0.00,VWS V14.01,2013-01-28 02:47:00,
2013-01-27 21:52:00,33.0,33.0,29.27,SSE,157,3.0,7.0,100,0.03,,---,0.24,0.00,VWS V14.01,2013-01-28 02:52:00,
2013-01-27 21:57:00,33.0,33.0,29.27,SSE,157,6.0,9.0,100,0.04,,---,0.25,0.00,VWS V14.01,2013-01-28 02:57:00,
2013-01-27 22:02:00,34.0,34.0,29.27,SE,135,7.0,12.0,100,0.04,,---,0.25,0.00,VWS V14.01,2013-01-28 03:02:00,
2013-01-27 22:07:00,34.0,34.0,29.27,SSE,157,7.0,8.0,100,0.04,,---,0.25,0.00,VWS V14.01,2013-01-28 03:07:00,
2013-01-27 22:13:00,34.0,34.0,29.26,SE,135,6.0,10.0,100,0.03,,---,0.25,0.00,VWS V14.01,2013-01-28 03:13:00,
2013-01-27 22:18:00,34.0,34.0,29.26,SE,135,6.0,9.0,100,0.03,,---,0.25,0.00,VWS V14.01,2013-01-28 03:18:00,
2013-01-27 22:23:00,34.0,34.0,29.26,SE,135,9.0,9.0,100,0.03,,---,0.25,0.00,VWS V14.01,2013-01-28 03:23:00,
2013-01-27 22:28:00,34.0,34.0,29.26,South,180,6.0,7.0,100,0.03,,---,0.25,0.00,VWS V14.01,2013-01-28 03:28:00,
2013-01-27 22:33:00,34.0,34.0,29.25,SE,135,4.0,7.0,100,0.03,,---,0.25,0.00,VWS V14.01,2013-01-28 03:33:00,
2013-01-27 22:38:00,35.0,35.0,29.25,South,180,4.0,8.0,100,0.03,,---,0.25,0.00,VWS V14.01,2013-01-28 03:38:00,
2013-01-27 22:43:00,35.0,35.0,29.25,SSE,157,1.0,7.0,100,0.02,,---,0.25,0.00,VWS V14.01,2013-01-28 03:43:00,
2013-01-27 22:48:00,35.0,35.0,29.25,SSE,157,6.0,10.0,100,0.02,,---,0.25,0.00,VWS V14.01,2013-01-28 03:48:00,
2013-01-27 22:53:00,35.0,35.0,29.25,SW,225,3.0,8.0,100,0.01,,---,0.25,0.00,VWS V14.01,2013-01-28 03:53:00,
2013-01-27 22:58:00,35.0,35.0,29.25,South,180,4.0,7.0,100,0.01,,---,0.25,0.00,VWS V14.01,2013-01-28 03:58:00,
2013-01-27 23:03:00,36.0,36.0,29.24,South,180,5.0,8.0,100,0.00,,---,0.25,0.00,VWS V14.01,2013-01-28 04:03:00,
2013-01-27 23:08:00,36.0,36.0,29.24,SSE,157,7.0,8.0,100,0.01,,---,0.26,0.00,VWS V14.01,2013-01-28 04:08:00,
2013-01-27 23:13:00,36.0,36.0,29.24,South,180,6.0,6.0,100,0.01,,---,0.26,0.00,VWS V14.01,2013-01-28 04:13:00,
2013-01-27 23:18:00,36.0,36.0,29.24,SSE,157,7.0,8.0,100,0.01,,---,0.26,0.00,VWS V14.01,2013-01-28 04:18:00,
2013-01-27 23:23:00,36.0,36.0,29.23,SE,135,6.0,9.0,100,0.01,,---,0.26,0.00,VWS V14.01,2013-01-28 04:23:00,
2013-01-27 23:28:00,36.0,36.0,29.23,SW,225,6.0,7.0,100,0.01,,---,0.26,0.00,VWS V14.01,2013-01-28 04:28:00,
2013-01-27 23:33:00,36.0,36.0,29.23,South,180,5.0,8.0,100,0.01,,---,0.26,0.00,VWS V14.01,2013-01-28 04:33:00,
2013-01-27 23:38:00,36.0,36.0,29.23,SSW,202,2.0,5.0,100,0.01,,---,0.26,0.00,VWS V14.01,2013-01-28 04:38:00,
2013-01-27 23:43:00,37.0,37.0,29.24,ESE,112,4.0,5.0,100,0.01,,---,0.26,0.00,VWS V14.01,2013-01-28 04:43:00,
2013-01-27 23:48:00,37.0,37.0,29.24,SE,135,5.0,6.0,100,0.01,,---,0.26,0.00,VWS V14.01,2013-01-28 04:48:00,
2013-01-27 23:53:00,37.0,37.0,29.25,SE,135,5.0,7.0,100,0.01,,---,0.26,0.00,VWS V14.01,2013-01-28 04:53:00,
2013-01-27 23:58:00,37.0,37.0,29.25,SSE,157,2.0,9.0,100,0.01,,---,0.26,0.00,VWS V14.01,2013-01-28 04:58:00,